Year,Month,Day,Hour,Minute,Value (Times are PST for temperature in C)
2019,02,04,00,00,-3.80
2019,02,04,00,01,-3.80
2019,02,04,00,02,-3.80
2019,02,04,00,03,-3.80
2019,02,04,00,04,-3.80
2019,02,04,00,05,-3.80
2019,02,04,00,06,-3.80
2019,02,04,00,07,-3.80
2019,02,04,00,08,-3.70
2019,02,04,00,09,-3.70
2019,02,04,00,10,-3.70
2019,02,04,00,11,-3.70
2019,02,04,00,12,-3.70
2019,02,04,00,13,-3.70
2019,02,04,00,14,-3.70
2019,02,04,00,15,-3.60
2019,02,04,00,16,-3.60
2019,02,04,00,17,-3.60
2019,02,04,00,18,-3.60
2019,02,04,00,19,-3.60
2019,02,04,00,20,-3.60
2019,02,04,00,21,-3.60
2019,02,04,00,22,-3.60
2019,02,04,00,23,-3.60
2019,02,04,00,24,-3.60
2019,02,04,00,25,-3.50
2019,02,04,00,26,-3.50
2019,02,04,00,27,-3.50
2019,02,04,00,28,-3.50
2019,02,04,00,29,-3.50
2019,02,04,00,30,-3.50
2019,02,04,00,31,-3.50
2019,02,04,00,32,-3.50
2019,02,04,00,33,-3.50
2019,02,04,00,34,-3.50
2019,02,04,00,35,-3.50
2019,02,04,00,36,-3.50
2019,02,04,00,37,-3.50
2019,02,04,00,38,-3.40
2019,02,04,00,39,-3.40
2019,02,04,00,40,-3.40
2019,02,04,00,41,-3.40
2019,02,04,00,42,-3.40
2019,02,04,00,43,-3.40
2019,02,04,00,44,-3.40
2019,02,04,00,45,-3.40
2019,02,04,00,46,-3.40
2019,02,04,00,47,-3.40
2019,02,04,00,48,-3.40
2019,02,04,00,49,-3.40
2019,02,04,00,50,-3.40
2019,02,04,00,51,-3.40
2019,02,04,00,52,-3.40
2019,02,04,00,53,-3.40
2019,02,04,00,54,-3.40
2019,02,04,00,55,-3.40
2019,02,04,00,56,-3.40
2019,02,04,00,57,-3.40
2019,02,04,00,58,-3.40
2019,02,04,00,59,-3.40
2019,02,04,01,00,-3.40
2019,02,04,01,01,-3.40
2019,02,04,01,02,-3.40
2019,02,04,01,03,-3.40
2019,02,04,01,04,-3.40
2019,02,04,01,05,-3.40
2019,02,04,01,06,-3.40
2019,02,04,01,07,-3.40
2019,02,04,01,08,-3.40
2019,02,04,01,09,-3.40
2019,02,04,01,10,-3.40
2019,02,04,01,11,-3.40
2019,02,04,01,12,-3.40
2019,02,04,01,13,-3.40
2019,02,04,01,14,-3.40
2019,02,04,01,15,-3.40
2019,02,04,01,16,-3.40
2019,02,04,01,17,-3.40
2019,02,04,01,18,-3.40
2019,02,04,01,19,-3.40
2019,02,04,01,20,-3.40
2019,02,04,01,21,-3.40
2019,02,04,01,22,-3.40
2019,02,04,01,23,-3.40
2019,02,04,01,24,-3.40
2019,02,04,01,25,-3.40
2019,02,04,01,26,-3.40
2019,02,04,01,27,-3.40
2019,02,04,01,28,-3.40
2019,02,04,01,29,-3.40
2019,02,04,01,30,-3.40
2019,02,04,01,31,-3.40
2019,02,04,01,32,-3.40
2019,02,04,01,33,-3.40
2019,02,04,01,34,-3.40
2019,02,04,01,35,-3.40
2019,02,04,01,36,-3.40
2019,02,04,01,37,-3.40
2019,02,04,01,38,-3.40
2019,02,04,01,39,-3.40
2019,02,04,01,40,-3.40
2019,02,04,01,41,-3.40
2019,02,04,01,42,-3.40
2019,02,04,01,43,-3.40
2019,02,04,01,44,-3.50
2019,02,04,01,45,-3.50
2019,02,04,01,46,-3.50
2019,02,04,01,47,-3.50
2019,02,04,01,48,-3.50
2019,02,04,01,49,-3.50
2019,02,04,01,50,-3.50
2019,02,04,01,51,-3.50
2019,02,04,01,52,-3.50
2019,02,04,01,53,-3.50
2019,02,04,01,54,-3.50
2019,02,04,01,55,-3.50
2019,02,04,01,56,-3.60
2019,02,04,01,57,-3.60
2019,02,04,01,58,-3.60
2019,02,04,01,59,-3.60
2019,02,04,02,00,-3.60
2019,02,04,02,01,-3.60
2019,02,04,02,02,-3.60
2019,02,04,02,03,-3.60
2019,02,04,02,04,-3.60
2019,02,04,02,05,-3.60
2019,02,04,02,06,-3.60
2019,02,04,02,07,-3.60
2019,02,04,02,08,-3.60
2019,02,04,02,09,-3.60
2019,02,04,02,10,-3.60
2019,02,04,02,11,-3.60
2019,02,04,02,12,-3.60
2019,02,04,02,13,-3.60
2019,02,04,02,14,-3.60
2019,02,04,02,15,-3.60
2019,02,04,02,16,-3.60
2019,02,04,02,17,-3.60
2019,02,04,02,18,-3.50
2019,02,04,02,19,-3.50
2019,02,04,02,20,-3.50
2019,02,04,02,21,-3.50
2019,02,04,02,22,-3.50
2019,02,04,02,23,-3.50
2019,02,04,02,24,-3.50
2019,02,04,02,25,-3.50
2019,02,04,02,26,-3.40
2019,02,04,02,27,-3.40
2019,02,04,02,28,-3.40
2019,02,04,02,29,-3.40
2019,02,04,02,30,-3.40
2019,02,04,02,31,-3.40
2019,02,04,02,32,-3.50
2019,02,04,02,33,-3.50
2019,02,04,02,34,-3.50
2019,02,04,02,35,-3.50
2019,02,04,02,36,-3.50
2019,02,04,02,37,-3.60
2019,02,04,02,38,-3.60
2019,02,04,02,39,-3.60
2019,02,04,02,40,-3.60
2019,02,04,02,41,-3.60
2019,02,04,02,42,-3.60
2019,02,04,02,43,-3.60
2019,02,04,02,44,-3.60
2019,02,04,02,45,-3.60
2019,02,04,02,46,-3.60
2019,02,04,02,47,-3.60
2019,02,04,02,48,-3.60
2019,02,04,02,49,-3.70
2019,02,04,02,50,-3.70
2019,02,04,02,51,-3.70
2019,02,04,02,52,-3.70
2019,02,04,02,53,-3.70
2019,02,04,02,54,-3.80
2019,02,04,02,55,-3.80
2019,02,04,02,56,-3.80
2019,02,04,02,57,-3.80
2019,02,04,02,58,-3.90
2019,02,04,02,59,-3.90
2019,02,04,03,00,-4.00
2019,02,04,03,01,-4.00
2019,02,04,03,02,-4.10
2019,02,04,03,03,-4.10
2019,02,04,03,04,-4.10
2019,02,04,03,05,-4.20
2019,02,04,03,06,-4.20
2019,02,04,03,07,-4.20
2019,02,04,03,08,-4.20
2019,02,04,03,09,-4.20
2019,02,04,03,10,-4.20
2019,02,04,03,11,-4.20
2019,02,04,03,12,-4.20
2019,02,04,03,13,-4.20
2019,02,04,03,14,-4.20
2019,02,04,03,15,-4.20
2019,02,04,03,16,-4.20
2019,02,04,03,17,-4.20
2019,02,04,03,18,-4.20
2019,02,04,03,19,-4.20
2019,02,04,03,20,-4.20
2019,02,04,03,21,-4.20
2019,02,04,03,22,-4.20
2019,02,04,03,23,-4.20
2019,02,04,03,24,-4.20
2019,02,04,03,25,-4.20
2019,02,04,03,26,-4.20
2019,02,04,03,27,-4.20
2019,02,04,03,28,-4.20
2019,02,04,03,29,-4.20
2019,02,04,03,30,-4.20
2019,02,04,03,31,-4.10
2019,02,04,03,32,-4.10
2019,02,04,03,33,-4.10
2019,02,04,03,34,-4.10
2019,02,04,03,35,-4.10
2019,02,04,03,36,-4.10
2019,02,04,03,37,-4.10
2019,02,04,03,38,-4.10
2019,02,04,03,39,-4.10
2019,02,04,03,40,-4.10
2019,02,04,03,41,-4.10
2019,02,04,03,42,-4.10
2019,02,04,03,43,-4.10
2019,02,04,03,44,-4.10
2019,02,04,03,45,-4.10
2019,02,04,03,46,-4.10
2019,02,04,03,47,-4.10
2019,02,04,03,48,-4.10
2019,02,04,03,49,-4.10
2019,02,04,03,50,-4.20
2019,02,04,03,51,-4.20
2019,02,04,03,52,-4.20
2019,02,04,03,53,-4.20
2019,02,04,03,54,-4.20
2019,02,04,03,55,-4.20
2019,02,04,03,56,-4.20
2019,02,04,03,57,-4.20
2019,02,04,03,58,-4.20
2019,02,04,03,59,-4.20
2019,02,04,04,00,-4.30
2019,02,04,04,01,-4.20
2019,02,04,04,02,-4.20
2019,02,04,04,03,-4.20
2019,02,04,04,04,-4.20
2019,02,04,04,05,-4.20
2019,02,04,04,06,-4.20
2019,02,04,04,07,-4.20
2019,02,04,04,08,-4.20
2019,02,04,04,09,-4.20
2019,02,04,04,10,-4.20
2019,02,04,04,11,-4.20
2019,02,04,04,12,-4.20
2019,02,04,04,13,-4.20
2019,02,04,04,14,-4.20
2019,02,04,04,15,-4.20
2019,02,04,04,16,-4.20
2019,02,04,04,17,-4.20
2019,02,04,04,18,-4.20
2019,02,04,04,19,-4.20
2019,02,04,04,20,-4.20
2019,02,04,04,21,-4.20
2019,02,04,04,22,-4.20
2019,02,04,04,23,-4.20
2019,02,04,04,24,-4.20
2019,02,04,04,25,-4.30
2019,02,04,04,26,-4.20
2019,02,04,04,27,-4.20
2019,02,04,04,28,-4.20
2019,02,04,04,29,-4.20
2019,02,04,04,30,-4.20
2019,02,04,04,31,-4.30
2019,02,04,04,32,-4.30
2019,02,04,04,33,-4.30
2019,02,04,04,34,-4.30
2019,02,04,04,35,-4.30
2019,02,04,04,36,-4.30
2019,02,04,04,37,-4.40
2019,02,04,04,38,-4.40
2019,02,04,04,39,-4.40
2019,02,04,04,40,-4.30
2019,02,04,04,41,-4.30
2019,02,04,04,42,-4.40
2019,02,04,04,43,-4.40
2019,02,04,04,44,-4.40
2019,02,04,04,45,-4.40
2019,02,04,04,46,-4.40
2019,02,04,04,47,-4.40
2019,02,04,04,48,-4.40
2019,02,04,04,49,-4.40
2019,02,04,04,50,-4.40
2019,02,04,04,51,-4.40
2019,02,04,04,52,-4.40
2019,02,04,04,53,-4.40
2019,02,04,04,54,-4.40
2019,02,04,04,55,-4.40
2019,02,04,04,56,-4.40
2019,02,04,04,57,-4.40
2019,02,04,04,58,-4.40
2019,02,04,04,59,-4.40
2019,02,04,05,00,-4.40
2019,02,04,05,01,-4.40
2019,02,04,05,02,-4.40
2019,02,04,05,03,-4.40
2019,02,04,05,04,-4.40
2019,02,04,05,05,-4.40
2019,02,04,05,06,-4.40
2019,02,04,05,07,-4.40
2019,02,04,05,08,-4.40
2019,02,04,05,09,-4.40
2019,02,04,05,10,-4.40
2019,02,04,05,11,-4.50
2019,02,04,05,12,-4.50
2019,02,04,05,13,-4.50
2019,02,04,05,14,-4.50
2019,02,04,05,15,-4.60
2019,02,04,05,16,-4.60
2019,02,04,05,17,-4.60
2019,02,04,05,18,-4.60
2019,02,04,05,19,-4.60
2019,02,04,05,20,-4.60
2019,02,04,05,21,-4.60
2019,02,04,05,22,-4.60
2019,02,04,05,23,-4.60
2019,02,04,05,24,-4.60
2019,02,04,05,25,-4.60
2019,02,04,05,26,-4.60
2019,02,04,05,27,-4.60
2019,02,04,05,28,-4.60
2019,02,04,05,29,-4.60
2019,02,04,05,30,-4.60
2019,02,04,05,31,-4.60
2019,02,04,05,32,-4.60
2019,02,04,05,33,-4.60
2019,02,04,05,34,-4.60
2019,02,04,05,35,-4.60
2019,02,04,05,36,-4.60
2019,02,04,05,37,-4.60
2019,02,04,05,38,-4.60
2019,02,04,05,39,-4.60
2019,02,04,05,40,-4.60
2019,02,04,05,41,-4.60
2019,02,04,05,42,-4.60
2019,02,04,05,43,-4.60
2019,02,04,05,44,-4.60
2019,02,04,05,45,-4.60
2019,02,04,05,46,-4.60
2019,02,04,05,47,-4.60
2019,02,04,05,48,-4.60
2019,02,04,05,49,-4.60
2019,02,04,05,50,-4.60
2019,02,04,05,51,-4.60
2019,02,04,05,52,-4.60
2019,02,04,05,53,-4.50
2019,02,04,05,54,-4.50
2019,02,04,05,55,-4.50
2019,02,04,05,56,-4.50
2019,02,04,05,57,-4.50
2019,02,04,05,58,-4.50
2019,02,04,05,59,-4.50
2019,02,04,06,00,-4.50
2019,02,04,06,01,-4.40
2019,02,04,06,02,-4.40
2019,02,04,06,03,-4.40
2019,02,04,06,04,-4.40
2019,02,04,06,05,-4.40
2019,02,04,06,06,-4.40
2019,02,04,06,07,-4.40
2019,02,04,06,08,-4.40
2019,02,04,06,09,-4.40
2019,02,04,06,10,-4.40
2019,02,04,06,11,-4.50
2019,02,04,06,12,-4.50
2019,02,04,06,13,-4.50
2019,02,04,06,14,-4.50
2019,02,04,06,15,-4.50
2019,02,04,06,16,-4.50
2019,02,04,06,17,-4.50
2019,02,04,06,18,-4.50
2019,02,04,06,19,-4.50
2019,02,04,06,20,-4.50
2019,02,04,06,21,-4.50
2019,02,04,06,22,-4.50
2019,02,04,06,23,-4.50
2019,02,04,06,24,-4.50
2019,02,04,06,25,-4.50
2019,02,04,06,26,-4.50
2019,02,04,06,27,-4.50
2019,02,04,06,28,-4.50
2019,02,04,06,29,-4.50
2019,02,04,06,30,-4.50
2019,02,04,06,31,-4.50
2019,02,04,06,32,-4.50
2019,02,04,06,33,-4.50
2019,02,04,06,34,-4.50
2019,02,04,06,35,-4.50
2019,02,04,06,36,-4.40
2019,02,04,06,37,-4.40
2019,02,04,06,38,-4.40
2019,02,04,06,39,-4.40
2019,02,04,06,40,-4.40
2019,02,04,06,41,-4.40
2019,02,04,06,42,-4.40
2019,02,04,06,43,-4.40
2019,02,04,06,44,-4.40
2019,02,04,06,45,-4.40
2019,02,04,06,46,-4.40
2019,02,04,06,47,-4.40
2019,02,04,06,48,-4.40
2019,02,04,06,49,-4.30
2019,02,04,06,50,-4.30
2019,02,04,06,51,-4.30
2019,02,04,06,52,-4.30
2019,02,04,06,53,-4.30
2019,02,04,06,54,-4.30
2019,02,04,06,55,-4.30
2019,02,04,06,56,-4.30
2019,02,04,06,57,-4.30
2019,02,04,06,58,-4.30
2019,02,04,06,59,-4.30
2019,02,04,07,00,-4.30
2019,02,04,07,01,-4.30
2019,02,04,07,02,-4.20
2019,02,04,07,03,-4.20
2019,02,04,07,04,-4.20
2019,02,04,07,05,-4.20
2019,02,04,07,06,-4.20
2019,02,04,07,07,-4.20
2019,02,04,07,08,-4.20
2019,02,04,07,09,-4.20
2019,02,04,07,10,-4.20
2019,02,04,07,11,-4.20
2019,02,04,07,12,-4.20
2019,02,04,07,13,-4.20
2019,02,04,07,14,-4.20
2019,02,04,07,15,-4.30
2019,02,04,07,16,-4.30
2019,02,04,07,17,-4.30
2019,02,04,07,18,-4.30
2019,02,04,07,19,-4.30
2019,02,04,07,20,-4.30
2019,02,04,07,21,-4.30
2019,02,04,07,22,-4.30
2019,02,04,07,23,-4.30
2019,02,04,07,24,-4.30
2019,02,04,07,25,-4.30
2019,02,04,07,26,-4.40
2019,02,04,07,27,-4.40
2019,02,04,07,28,-4.40
2019,02,04,07,29,-4.50
2019,02,04,07,30,-4.50
2019,02,04,07,31,-4.50
2019,02,04,07,32,-4.50
2019,02,04,07,33,-4.60
2019,02,04,07,34,-4.60
2019,02,04,07,35,-4.60
2019,02,04,07,36,-4.60
2019,02,04,07,37,-4.60
2019,02,04,07,38,-4.60
2019,02,04,07,39,-4.60
2019,02,04,07,40,-4.60
2019,02,04,07,41,-4.60
2019,02,04,07,42,-4.60
2019,02,04,07,43,-4.60
2019,02,04,07,44,-4.60
2019,02,04,07,45,-4.60
2019,02,04,07,46,-4.60
2019,02,04,07,47,-4.60
2019,02,04,07,48,-4.60
2019,02,04,07,49,-4.60
2019,02,04,07,50,-4.60
2019,02,04,07,51,-4.60
2019,02,04,07,52,-4.60
2019,02,04,07,53,-4.60
2019,02,04,07,54,-4.60
2019,02,04,07,55,-4.60
2019,02,04,07,56,-4.60
2019,02,04,07,57,-4.60
2019,02,04,07,58,-4.60
2019,02,04,07,59,-4.60
2019,02,04,08,00,-4.60
2019,02,04,08,01,-4.60
2019,02,04,08,02,-4.60
2019,02,04,08,03,-4.60
2019,02,04,08,04,-4.60
2019,02,04,08,05,-4.60
2019,02,04,08,06,-4.60
2019,02,04,08,07,-4.60
2019,02,04,08,08,-4.60
2019,02,04,08,09,-4.60
2019,02,04,08,10,-4.60
2019,02,04,08,11,-4.60
2019,02,04,08,12,-4.60
2019,02,04,08,13,-4.70
2019,02,04,08,14,-4.70
2019,02,04,08,15,-4.70
2019,02,04,08,16,-4.70
2019,02,04,08,17,-4.70
2019,02,04,08,18,-4.70
2019,02,04,08,19,-4.70
2019,02,04,08,20,-4.70
2019,02,04,08,21,-4.70
2019,02,04,08,22,-4.70
2019,02,04,08,23,-4.70
2019,02,04,08,24,-4.70
2019,02,04,08,25,-4.70
2019,02,04,08,26,-4.70
2019,02,04,08,27,-4.70
2019,02,04,08,28,-4.70
2019,02,04,08,29,-4.70
2019,02,04,08,30,-4.70
2019,02,04,08,31,-4.70
2019,02,04,08,32,-4.70
2019,02,04,08,33,-4.70
2019,02,04,08,34,-4.70
2019,02,04,08,35,-4.70
2019,02,04,08,36,-4.70
2019,02,04,08,37,-4.70
2019,02,04,08,38,-4.70
2019,02,04,08,39,-4.70
2019,02,04,08,40,-4.70
2019,02,04,08,41,-4.70
2019,02,04,08,42,-4.70
2019,02,04,08,43,-4.70
2019,02,04,08,44,-4.70
2019,02,04,08,45,-4.60
2019,02,04,08,46,-4.60
2019,02,04,08,47,-4.60
2019,02,04,08,48,-4.60
2019,02,04,08,49,-4.60
2019,02,04,08,50,-4.60
2019,02,04,08,51,-4.50
2019,02,04,08,52,-4.50
2019,02,04,08,53,-4.50
2019,02,04,08,54,-4.50
2019,02,04,08,55,-4.50
2019,02,04,08,56,-4.40
2019,02,04,08,57,-4.40
2019,02,04,08,58,-4.40
2019,02,04,08,59,-4.40
2019,02,04,09,00,-4.40
2019,02,04,09,01,-4.40
2019,02,04,09,02,-4.40
2019,02,04,09,03,-4.40
2019,02,04,09,04,-4.40
2019,02,04,09,05,-4.40
2019,02,04,09,06,-4.40
2019,02,04,09,07,-4.40
2019,02,04,09,08,-4.40
2019,02,04,09,09,-4.30
2019,02,04,09,10,-4.30
2019,02,04,09,11,-4.30
2019,02,04,09,12,-4.30
2019,02,04,09,13,-4.30
2019,02,04,09,14,-4.20
2019,02,04,09,15,-4.20
2019,02,04,09,16,-4.20
2019,02,04,09,17,-4.20
2019,02,04,09,18,-4.20
2019,02,04,09,19,-4.20
2019,02,04,09,20,-4.20
2019,02,04,09,21,-4.20
2019,02,04,09,22,-4.20
2019,02,04,09,23,-4.10
2019,02,04,09,24,-4.10
2019,02,04,09,25,-4.10
2019,02,04,09,26,-4.10
2019,02,04,09,27,-4.00
2019,02,04,09,28,-4.00
2019,02,04,09,29,-4.00
2019,02,04,09,30,-4.00
2019,02,04,09,31,-3.90
2019,02,04,09,32,-3.90
2019,02,04,09,33,-3.90
2019,02,04,09,34,-3.90
2019,02,04,09,35,-3.90
2019,02,04,09,36,-3.80
2019,02,04,09,37,-3.80
2019,02,04,09,38,-3.80
2019,02,04,09,39,-3.80
2019,02,04,09,40,-3.80
2019,02,04,09,41,-3.80
2019,02,04,09,42,-3.70
2019,02,04,09,43,-3.70
2019,02,04,09,44,-3.70
2019,02,04,09,45,-3.70
2019,02,04,09,46,-3.70
2019,02,04,09,47,-3.70
2019,02,04,09,48,-3.70
2019,02,04,09,49,-3.70
2019,02,04,09,50,-3.70
2019,02,04,09,51,-3.70
2019,02,04,09,52,-3.70
2019,02,04,09,53,-3.70
2019,02,04,09,54,-3.60
2019,02,04,09,55,-3.60
2019,02,04,09,56,-3.60
2019,02,04,09,57,-3.60
2019,02,04,09,58,-3.50
2019,02,04,09,59,-3.50
2019,02,04,10,00,-3.50
2019,02,04,10,01,-3.40
2019,02,04,10,02,-3.40
2019,02,04,10,03,-3.40
2019,02,04,10,04,-3.40
2019,02,04,10,05,-3.40
2019,02,04,10,06,-3.40
2019,02,04,10,07,-3.40
2019,02,04,10,08,-3.40
2019,02,04,10,09,-3.40
2019,02,04,10,10,-3.40
2019,02,04,10,11,-3.40
2019,02,04,10,12,-3.40
2019,02,04,10,13,-3.40
2019,02,04,10,14,-3.40
2019,02,04,10,15,-3.30
2019,02,04,10,16,-3.30
2019,02,04,10,17,-3.30
2019,02,04,10,18,-3.30
2019,02,04,10,19,-3.30
2019,02,04,10,20,-3.30
2019,02,04,10,21,-3.30
2019,02,04,10,22,-3.30
2019,02,04,10,23,-3.30
2019,02,04,10,24,-3.30
2019,02,04,10,25,-3.30
2019,02,04,10,26,-3.30
2019,02,04,10,27,-3.30
2019,02,04,10,28,-3.20
2019,02,04,10,29,-3.20
2019,02,04,10,30,-3.20
2019,02,04,10,31,-3.20
2019,02,04,10,32,-3.20
2019,02,04,10,33,-3.20
2019,02,04,10,34,-3.20
2019,02,04,10,35,-3.20
2019,02,04,10,36,-3.20
2019,02,04,10,37,-3.30
2019,02,04,10,38,-3.30
2019,02,04,10,39,-3.30
2019,02,04,10,40,-3.20
2019,02,04,10,41,-3.20
2019,02,04,10,42,-3.20
2019,02,04,10,43,-3.20
2019,02,04,10,44,-3.20
2019,02,04,10,45,-3.20
2019,02,04,10,46,-3.20
2019,02,04,10,47,-3.10
2019,02,04,10,48,-3.10
2019,02,04,10,49,-3.20
2019,02,04,10,50,-3.20
2019,02,04,10,51,-3.10
2019,02,04,10,52,-3.10
2019,02,04,10,53,-3.10
2019,02,04,10,54,-3.10
2019,02,04,10,55,-3.10
2019,02,04,10,56,-3.10
2019,02,04,10,57,-3.10
2019,02,04,10,58,-3.10
2019,02,04,10,59,-3.10
2019,02,04,11,00,-3.10
2019,02,04,11,01,-3.10
2019,02,04,11,02,-3.10
2019,02,04,11,03,-3.10
2019,02,04,11,04,-3.10
2019,02,04,11,05,-3.10
2019,02,04,11,06,-3.10
2019,02,04,11,07,-3.10
2019,02,04,11,08,-3.20
2019,02,04,11,09,-3.20
2019,02,04,11,10,-3.20
2019,02,04,11,11,-3.20
2019,02,04,11,12,-3.20
2019,02,04,11,13,-3.10
2019,02,04,11,14,-3.10
2019,02,04,11,15,-3.10
2019,02,04,11,16,-3.10
2019,02,04,11,17,-3.10
2019,02,04,11,18,-3.10
2019,02,04,11,19,-3.10
2019,02,04,11,20,-3.10
2019,02,04,11,21,-3.10
2019,02,04,11,22,-3.10
2019,02,04,11,23,-3.10
2019,02,04,11,24,-3.10
2019,02,04,11,25,-3.10
2019,02,04,11,26,-3.00
2019,02,04,11,27,-3.00
2019,02,04,11,28,-3.00
2019,02,04,11,29,-2.90
2019,02,04,11,30,-2.90
2019,02,04,11,31,-2.90
2019,02,04,11,32,-2.80
2019,02,04,11,33,-2.80
2019,02,04,11,34,-2.80
2019,02,04,11,35,-2.80
2019,02,04,11,36,-2.90
2019,02,04,11,37,-2.90
2019,02,04,11,38,-2.90
2019,02,04,11,39,-2.90
2019,02,04,11,40,-2.90
2019,02,04,11,41,-2.90
2019,02,04,11,42,-2.90
2019,02,04,11,43,-2.80
2019,02,04,11,44,-2.80
2019,02,04,11,45,-2.80
2019,02,04,11,46,-2.80
2019,02,04,11,47,-2.80
2019,02,04,11,48,-2.80
2019,02,04,11,49,-2.80
2019,02,04,11,50,-2.80
2019,02,04,11,51,-2.80
2019,02,04,11,52,-2.80
2019,02,04,11,53,-2.80
2019,02,04,11,54,-2.70
2019,02,04,11,55,-2.70
2019,02,04,11,56,-2.70
2019,02,04,11,57,-2.70
2019,02,04,11,58,-2.70
2019,02,04,11,59,-2.70
2019,02,04,12,00,-2.70
2019,02,04,12,01,-2.70
2019,02,04,12,02,-2.60
2019,02,04,12,03,-2.70
2019,02,04,12,04,-2.70
2019,02,04,12,05,-2.60
2019,02,04,12,06,-2.60
2019,02,04,12,07,-2.60
2019,02,04,12,08,-2.60
2019,02,04,12,09,-2.60
2019,02,04,12,10,-2.60
2019,02,04,12,11,-2.60
2019,02,04,12,12,-2.60
2019,02,04,12,13,-2.60
2019,02,04,12,14,-2.60
2019,02,04,12,15,-2.60
2019,02,04,12,16,-2.50
2019,02,04,12,17,-2.50
2019,02,04,12,18,-2.50
2019,02,04,12,19,-2.50
2019,02,04,12,20,-2.40
2019,02,04,12,21,-2.40
2019,02,04,12,22,-2.40
2019,02,04,12,23,-2.40
2019,02,04,12,24,-2.40
2019,02,04,12,25,-2.30
2019,02,04,12,26,-2.30
2019,02,04,12,27,-2.30
2019,02,04,12,28,-2.30
2019,02,04,12,29,-2.30
2019,02,04,12,30,-2.30
2019,02,04,12,31,-2.30
2019,02,04,12,32,-2.30
2019,02,04,12,33,-2.30
2019,02,04,12,34,-2.30
2019,02,04,12,35,-2.20
2019,02,04,12,36,-2.20
2019,02,04,12,37,-2.10
2019,02,04,12,38,-2.10
2019,02,04,12,39,-2.00
2019,02,04,12,40,-2.00
2019,02,04,12,41,-1.90
2019,02,04,12,42,-1.90
2019,02,04,12,43,-1.90
2019,02,04,12,44,-1.90
2019,02,04,12,45,-1.90
2019,02,04,12,46,-1.90
2019,02,04,12,47,-2.00
2019,02,04,12,48,-1.90
2019,02,04,12,49,-1.90
2019,02,04,12,50,-2.00
2019,02,04,12,51,-2.00
2019,02,04,12,52,-2.00
2019,02,04,12,53,-2.00
2019,02,04,12,54,-2.00
2019,02,04,12,55,-1.90
2019,02,04,12,56,-1.80
2019,02,04,12,57,-1.80
2019,02,04,12,58,-1.70
2019,02,04,12,59,-1.50
2019,02,04,13,00,-1.50
2019,02,04,13,01,-1.40
2019,02,04,13,02,-1.40
2019,02,04,13,03,-1.50
2019,02,04,13,04,-1.60
2019,02,04,13,05,-1.60
2019,02,04,13,06,-1.70
2019,02,04,13,07,-1.60
2019,02,04,13,08,-1.60
2019,02,04,13,09,-1.50
2019,02,04,13,10,-1.40
2019,02,04,13,11,-1.40
2019,02,04,13,12,-1.50
2019,02,04,13,13,-1.60
2019,02,04,13,14,-1.50
2019,02,04,13,15,-1.50
2019,02,04,13,16,-1.40
2019,02,04,13,17,-1.30
2019,02,04,13,18,-1.30
2019,02,04,13,19,-1.30
2019,02,04,13,20,-1.30
2019,02,04,13,21,-1.20
2019,02,04,13,22,-1.20
2019,02,04,13,23,-1.20
2019,02,04,13,24,-1.30
2019,02,04,13,25,-1.30
2019,02,04,13,26,-1.40
2019,02,04,13,27,-1.40
2019,02,04,13,28,-1.50
2019,02,04,13,29,-1.50
2019,02,04,13,30,-1.50
2019,02,04,13,31,-1.40
2019,02,04,13,32,-1.40
2019,02,04,13,33,-1.30
2019,02,04,13,34,-1.30
2019,02,04,13,35,-1.20
2019,02,04,13,36,-1.20
2019,02,04,13,37,-1.20
2019,02,04,13,38,-1.20
2019,02,04,13,39,-1.20
2019,02,04,13,40,-1.20
2019,02,04,13,41,-1.20
2019,02,04,13,42,-1.20
2019,02,04,13,43,-1.20
2019,02,04,13,44,-1.20
2019,02,04,13,45,-1.10
2019,02,04,13,46,-1.10
2019,02,04,13,47,-1.20
2019,02,04,13,48,-1.20
2019,02,04,13,49,-1.20
2019,02,04,13,50,-1.20
2019,02,04,13,51,-1.20
2019,02,04,13,52,-1.20
2019,02,04,13,53,-1.10
2019,02,04,13,54,-1.00
2019,02,04,13,55,-0.90
2019,02,04,13,56,-0.80
2019,02,04,13,57,-0.90
2019,02,04,13,58,-0.90
2019,02,04,13,59,-0.80
2019,02,04,14,00,-0.80
2019,02,04,14,01,-0.80
2019,02,04,14,02,-0.90
2019,02,04,14,03,-0.90
2019,02,04,14,04,-0.90
2019,02,04,14,05,-0.80
2019,02,04,14,06,-0.80
2019,02,04,14,07,-0.80
2019,02,04,14,08,-0.80
2019,02,04,14,09,-0.80
2019,02,04,14,10,-0.90
2019,02,04,14,11,-1.00
2019,02,04,14,12,-1.00
2019,02,04,14,13,-1.00
2019,02,04,14,14,-1.10
2019,02,04,14,15,-1.10
2019,02,04,14,16,-1.10
2019,02,04,14,17,-1.00
2019,02,04,14,18,-1.00
2019,02,04,14,19,-0.90
2019,02,04,14,20,-0.90
2019,02,04,14,21,-1.00
2019,02,04,14,22,-1.00
2019,02,04,14,23,-1.10
2019,02,04,14,24,-1.10
2019,02,04,14,25,-1.10
2019,02,04,14,26,-1.10
2019,02,04,14,27,-1.10
2019,02,04,14,28,-1.00
2019,02,04,14,29,-1.00
2019,02,04,14,30,-1.00
2019,02,04,14,31,-1.00
2019,02,04,14,32,-1.10
2019,02,04,14,33,-1.10
2019,02,04,14,34,-1.10
2019,02,04,14,35,-1.20
2019,02,04,14,36,-1.20
2019,02,04,14,37,-1.20
2019,02,04,14,38,-1.20
2019,02,04,14,39,-1.20
2019,02,04,14,40,-1.20
2019,02,04,14,41,-1.20
2019,02,04,14,42,-1.20
2019,02,04,14,43,-1.20
2019,02,04,14,44,-1.20
2019,02,04,14,45,-1.20
2019,02,04,14,46,-1.20
2019,02,04,14,47,-1.20
2019,02,04,14,48,-1.20
2019,02,04,14,49,-1.20
2019,02,04,14,50,-1.30
2019,02,04,14,51,-1.30
2019,02,04,14,52,-1.30
2019,02,04,14,53,-1.30
2019,02,04,14,54,-1.30
2019,02,04,14,55,-1.30
2019,02,04,14,56,-1.30
2019,02,04,14,57,-1.30
2019,02,04,14,58,-1.30
2019,02,04,14,59,-1.30
2019,02,04,15,00,-1.30
2019,02,04,15,01,-1.40
2019,02,04,15,02,-1.30
2019,02,04,15,03,-1.30
2019,02,04,15,04,-1.30
2019,02,04,15,05,-1.30
2019,02,04,15,06,-1.20
2019,02,04,15,07,-1.20
2019,02,04,15,08,-1.20
2019,02,04,15,09,-1.20
2019,02,04,15,10,-1.20
2019,02,04,15,11,-1.20
2019,02,04,15,12,-1.10
2019,02,04,15,13,-1.10
2019,02,04,15,14,-1.10
2019,02,04,15,15,-1.10
2019,02,04,15,16,-1.10
2019,02,04,15,17,-1.10
2019,02,04,15,18,-1.10
2019,02,04,15,19,-1.10
2019,02,04,15,20,-1.10
2019,02,04,15,21,-1.20
2019,02,04,15,22,-1.20
2019,02,04,15,23,-1.20
2019,02,04,15,24,-1.20
2019,02,04,15,25,-1.20
2019,02,04,15,26,-1.20
2019,02,04,15,27,-1.20
2019,02,04,15,28,-1.20
2019,02,04,15,29,-1.10
2019,02,04,15,30,-1.10
2019,02,04,15,31,-1.10
2019,02,04,15,32,-1.10
2019,02,04,15,33,-1.10
2019,02,04,15,34,-1.10
2019,02,04,15,35,-1.10
2019,02,04,15,36,-1.10
2019,02,04,15,37,-1.00
2019,02,04,15,38,-1.00
2019,02,04,15,39,-1.00
2019,02,04,15,40,-1.00
2019,02,04,15,41,-1.00
2019,02,04,15,42,-0.90
2019,02,04,15,43,-0.90
2019,02,04,15,44,-0.80
2019,02,04,15,45,-0.80
2019,02,04,15,46,-0.70
2019,02,04,15,47,-0.70
2019,02,04,15,48,-0.60
2019,02,04,15,49,-0.60
2019,02,04,15,50,-0.50
2019,02,04,15,51,-0.50
2019,02,04,15,52,-0.50
2019,02,04,15,53,-0.50
2019,02,04,15,54,-0.60
2019,02,04,15,55,-0.60
2019,02,04,15,56,-0.60
2019,02,04,15,57,-0.60
2019,02,04,15,58,-0.60
2019,02,04,15,59,-0.60
2019,02,04,16,00,-0.70
2019,02,04,16,01,-0.70
2019,02,04,16,02,-0.70
2019,02,04,16,03,-0.70
2019,02,04,16,04,-0.70
2019,02,04,16,05,-0.70
2019,02,04,16,06,-0.70
2019,02,04,16,07,-0.70
2019,02,04,16,08,-0.70
2019,02,04,16,09,-0.70
2019,02,04,16,10,-0.70
2019,02,04,16,11,-0.70
2019,02,04,16,12,-0.70
2019,02,04,16,13,-0.70
2019,02,04,16,14,-0.70
2019,02,04,16,15,-0.70
2019,02,04,16,16,-0.80
2019,02,04,16,17,-0.80
2019,02,04,16,18,-0.80
2019,02,04,16,19,-0.80
2019,02,04,16,20,-0.80
2019,02,04,16,21,-0.90
2019,02,04,16,22,-0.90
2019,02,04,16,23,-0.90
2019,02,04,16,24,-0.90
2019,02,04,16,25,-0.90
2019,02,04,16,26,-0.90
2019,02,04,16,27,-0.90
2019,02,04,16,28,-0.90
2019,02,04,16,29,-0.90
2019,02,04,16,30,-0.90
2019,02,04,16,31,-0.90
2019,02,04,16,32,-1.00
2019,02,04,16,33,-1.00
2019,02,04,16,34,-1.00
2019,02,04,16,35,-1.00
2019,02,04,16,36,-1.00
2019,02,04,16,37,-1.00
2019,02,04,16,38,-1.00
2019,02,04,16,39,-1.00
2019,02,04,16,40,-1.00
2019,02,04,16,41,-1.00
2019,02,04,16,42,-1.00
2019,02,04,16,43,-1.00
2019,02,04,16,44,-1.00
2019,02,04,16,45,-1.00
2019,02,04,16,46,-1.10
2019,02,04,16,47,-1.10
2019,02,04,16,48,-1.10
2019,02,04,16,49,-1.10
2019,02,04,16,50,-1.10
2019,02,04,16,51,-1.10
2019,02,04,16,52,-1.10
2019,02,04,16,53,-1.10
2019,02,04,16,54,-1.10
2019,02,04,16,55,-1.10
2019,02,04,16,56,-1.10
2019,02,04,16,57,-1.10
2019,02,04,16,58,-1.10
2019,02,04,16,59,-1.10
2019,02,04,17,00,-1.10
2019,02,04,17,01,-1.10
2019,02,04,17,02,-1.10
2019,02,04,17,03,-1.10
2019,02,04,17,04,-1.10
2019,02,04,17,05,-1.10
2019,02,04,17,06,-1.20
2019,02,04,17,07,-1.20
2019,02,04,17,08,-1.20
2019,02,04,17,09,-1.20
2019,02,04,17,10,-1.20
2019,02,04,17,11,-1.20
2019,02,04,17,12,-1.20
2019,02,04,17,13,-1.20
2019,02,04,17,14,-1.20
2019,02,04,17,15,-1.20
2019,02,04,17,16,-1.20
2019,02,04,17,17,-1.20
2019,02,04,17,18,-1.20
2019,02,04,17,19,-1.20